Time,TemperatureF,DewpointF,PressureIn,WindDirection,WindDirectionDegrees,WindSpeedMPH,WindSpeedGustMPH,Humidity,HourlyPrecipIn,Conditions,Clouds,dailyrainin,SolarRadiationWatts/m^2,SoftwareType,DateUTC
2013-03-17 00:00:00,32.0,30.5,29.89,NW,307,0.0,0.0,94,0.00,,,0.02,0,Wunderground v.1.15,2013-03-17 04:00:00,
2013-03-17 00:05:00,32.0,30.5,29.89,NW,307,0.0,0.0,94,0.00,,,0.00,0,Wunderground v.1.15,2013-03-17 04:05:00,
2013-03-17 00:10:00,32.0,30.5,29.89,NW,307,0.0,0.0,94,0.00,,,0.00,0,Wunderground v.1.15,2013-03-17 04:10:00,
2013-03-17 00:20:00,32.1,30.6,29.89,NW,307,0.0,0.0,94,0.00,,,0.00,0,Wunderground v.1.15,2013-03-17 04:20:00,
2013-03-17 00:30:00,32.1,30.6,29.90,NW,307,0.0,0.0,94,0.00,,,0.00,0,Wunderground v.1.15,2013-03-17 04:30:00,
2013-03-17 00:35:00,32.1,30.6,29.90,NW,307,0.0,0.0,94,0.00,,,0.00,0,Wunderground v.1.15,2013-03-17 04:35:00,
2013-03-17 00:40:00,32.1,30.6,29.90,NW,307,0.0,0.0,94,0.00,,,0.00,0,Wunderground v.1.15,2013-03-17 04:40:00,
2013-03-17 00:45:00,32.1,30.6,29.90,NW,307,0.0,0.0,94,0.00,,,0.00,0,Wunderground v.1.15,2013-03-17 04:45:00,
2013-03-17 00:55:00,32.2,30.7,29.90,NW,307,0.0,0.0,94,0.00,,,0.00,0,Wunderground v.1.15,2013-03-17 04:55:00,
2013-03-17 01:00:00,32.2,30.7,29.90,NW,307,0.0,0.0,94,0.00,,,0.00,0,Wunderground v.1.15,2013-03-17 05:00:00,
2013-03-17 01:10:00,32.2,30.7,29.91,NW,307,0.0,0.0,94,0.00,,,0.00,0,Wunderground v.1.15,2013-03-17 05:10:00,
2013-03-17 01:15:00,32.2,30.7,29.91,NW,307,0.0,0.0,94,0.00,,,0.00,0,Wunderground v.1.15,2013-03-17 05:15:00,
2013-03-17 01:20:00,32.2,30.7,29.90,NW,307,0.0,0.0,94,0.00,,,0.00,0,Wunderground v.1.15,2013-03-17 05:20:00,
2013-03-17 01:25:00,32.2,30.7,29.90,NW,307,0.0,0.0,94,0.00,,,0.00,0,Wunderground v.1.15,2013-03-17 05:25:00,
2013-03-17 01:30:00,32.1,30.6,29.91,NW,307,0.0,0.0,94,0.00,,,0.00,0,Wunderground v.1.15,2013-03-17 05:30:00,
2013-03-17 01:35:00,32.1,30.6,29.91,NW,307,0.0,0.0,94,0.00,,,0.00,0,Wunderground v.1.15,2013-03-17 05:35:00,
2013-03-17 01:40:00,32.1,30.6,29.91,NW,307,0.0,0.0,94,0.00,,,0.00,0,Wunderground v.1.15,2013-03-17 05:40:00,
2013-03-17 01:50:00,32.1,30.6,29.91,NW,307,0.0,0.0,94,0.00,,,0.00,0,Wunderground v.1.15,2013-03-17 05:50:00,
2013-03-17 02:00:00,32.0,30.5,29.91,NW,307,0.0,0.0,94,0.00,,,0.00,0,Wunderground v.1.15,2013-03-17 06:00:00,
2013-03-17 02:05:00,32.0,30.2,29.91,NW,307,0.0,0.0,93,0.00,,,0.00,0,Wunderground v.1.15,2013-03-17 06:05:00,
2013-03-17 02:10:00,31.9,30.1,29.90,NW,307,0.0,0.0,93,0.00,,,0.00,0,Wunderground v.1.15,2013-03-17 06:10:00,
2013-03-17 02:15:00,31.8,30.0,29.91,NW,307,0.0,0.0,93,0.00,,,0.00,0,Wunderground v.1.15,2013-03-17 06:15:00,
2013-03-17 02:25:00,31.6,29.8,29.91,NW,307,0.0,0.0,93,0.00,,,0.00,0,Wunderground v.1.15,2013-03-17 06:25:00,
2013-03-17 02:30:00,31.4,29.6,29.91,NW,307,0.0,0.0,93,0.00,,,0.00,0,Wunderground v.1.15,2013-03-17 06:30:00,
2013-03-17 02:35:00,31.2,29.4,29.91,NW,307,0.0,0.0,93,0.00,,,0.00,0,Wunderground v.1.15,2013-03-17 06:35:00,
2013-03-17 02:45:00,31.0,28.9,29.92,NW,307,0.0,0.0,92,0.00,,,0.00,0,Wunderground v.1.15,2013-03-17 06:45:00,
2013-03-17 02:50:00,30.8,28.8,29.91,NW,307,0.0,0.0,92,0.00,,,0.00,0,Wunderground v.1.15,2013-03-17 06:50:00,
2013-03-17 03:00:00,30.6,28.6,29.91,NW,307,0.0,0.0,92,0.00,,,0.00,0,Wunderground v.1.15,2013-03-17 07:00:00,
2013-03-17 03:05:00,30.4,28.4,29.91,NW,307,0.0,0.0,92,0.00,,,0.00,0,Wunderground v.1.15,2013-03-17 07:05:00,
2013-03-17 03:10:00,30.2,28.2,29.91,NW,307,0.0,0.0,92,0.00,,,0.00,0,Wunderground v.1.15,2013-03-17 07:10:00,
2013-03-17 03:20:00,30.0,28.0,29.91,NW,307,0.0,0.0,92,0.00,,,0.00,0,Wunderground v.1.15,2013-03-17 07:20:00,
2013-03-17 03:30:00,29.7,27.7,29.91,NW,307,0.0,0.0,92,0.00,,,0.00,0,Wunderground v.1.15,2013-03-17 07:30:00,
2013-03-17 03:35:00,29.5,27.5,29.91,NW,307,0.0,0.0,92,0.00,,,0.00,0,Wunderground v.1.15,2013-03-17 07:35:00,
2013-03-17 03:45:00,29.2,27.2,29.92,NW,307,0.0,0.0,92,0.00,,,0.00,0,Wunderground v.1.15,2013-03-17 07:45:00,
2013-03-17 03:55:00,28.9,26.9,29.92,NW,307,0.0,0.0,92,0.00,,,0.00,0,Wunderground v.1.15,2013-03-17 07:55:00,
2013-03-17 04:05:00,28.7,26.7,29.93,NW,307,0.0,0.0,92,0.00,,,0.00,0,Wunderground v.1.15,2013-03-17 08:05:00,
2013-03-17 04:15:00,28.4,26.4,29.93,NW,307,0.0,0.0,92,0.00,,,0.00,0,Wunderground v.1.15,2013-03-17 08:15:00,
2013-03-17 04:20:00,28.3,26.3,29.94,NW,307,0.0,0.0,92,0.00,,,0.00,0,Wunderground v.1.15,2013-03-17 08:20:00,
2013-03-17 04:30:00,28.0,26.2,29.94,NW,307,0.0,0.0,93,0.00,,,0.00,0,Wunderground v.1.15,2013-03-17 08:30:00,
2013-03-17 04:35:00,28.0,26.2,29.94,NW,307,0.0,0.0,93,0.00,,,0.00,0,Wunderground v.1.15,2013-03-17 08:35:00,
2013-03-17 04:40:00,27.8,26.0,29.94,NW,307,0.0,0.0,93,0.00,,,0.00,0,Wunderground v.1.15,2013-03-17 08:40:00,
2013-03-17 04:45:00,27.7,25.9,29.94,NW,307,0.0,0.0,93,0.00,,,0.00,0,Wunderground v.1.15,2013-03-17 08:45:00,
2013-03-17 04:55:00,27.6,25.8,29.95,NW,307,0.0,0.0,93,0.00,,,0.00,0,Wunderground v.1.15,2013-03-17 08:55:00,
2013-03-17 05:00:00,27.5,25.7,29.95,NW,307,0.0,0.0,93,0.00,,,0.00,0,Wunderground v.1.15,2013-03-17 09:00:00,
2013-03-17 05:10:00,27.4,25.6,29.96,NW,309,0.0,0.0,93,0.00,,,0.00,0,Wunderground v.1.15,2013-03-17 09:10:00,
2013-03-17 05:15:00,27.3,25.5,29.96,NW,309,0.0,0.0,93,0.00,,,0.00,0,Wunderground v.1.15,2013-03-17 09:15:00,
2013-03-17 05:25:00,27.2,25.4,29.97,NW,309,0.0,0.0,93,0.00,,,0.00,0,Wunderground v.1.15,2013-03-17 09:25:00,
2013-03-17 05:35:00,27.2,25.4,29.97,NNW,327,0.0,0.0,93,0.00,,,0.00,0,Wunderground v.1.15,2013-03-17 09:35:00,
2013-03-17 05:45:00,27.3,25.3,29.98,NNW,334,0.0,1.0,92,0.00,,,0.00,0,Wunderground v.1.15,2013-03-17 09:45:00,
2013-03-17 05:54:00,27.3,25.3,29.98,NNW,334,0.0,0.0,92,0.00,,,0.00,0,Wunderground v.1.15,2013-03-17 09:54:00,
2013-03-17 06:00:00,27.2,24.9,29.98,NNW,334,0.0,0.0,91,0.00,,,0.00,0,Wunderground v.1.15,2013-03-17 10:00:00,
2013-03-17 06:05:00,27.2,24.9,29.98,NNW,334,0.0,0.0,91,0.00,,,0.00,0,Wunderground v.1.15,2013-03-17 10:05:00,
2013-03-17 06:10:00,27.2,24.9,29.99,NNW,334,0.0,0.0,91,0.00,,,0.00,0,Wunderground v.1.15,2013-03-17 10:10:00,
2013-03-17 06:20:00,27.0,24.7,29.99,NNW,334,0.0,0.0,91,0.00,,,0.00,0,Wunderground v.1.15,2013-03-17 10:20:00,
2013-03-17 06:30:00,26.9,24.6,29.99,NNW,334,0.0,0.0,91,0.00,,,0.00,0,Wunderground v.1.15,2013-03-17 10:30:00,
2013-03-17 06:35:00,26.8,24.5,29.99,NNW,334,0.0,0.0,91,0.00,,,0.00,0,Wunderground v.1.15,2013-03-17 10:35:00,
2013-03-17 06:45:00,26.7,24.4,30.00,NNW,334,0.0,0.0,91,0.00,,,0.00,0,Wunderground v.1.15,2013-03-17 10:45:00,
2013-03-17 06:50:00,26.7,24.2,30.00,NNW,334,0.0,0.0,90,0.00,,,0.00,0,Wunderground v.1.15,2013-03-17 10:50:00,
2013-03-17 06:55:00,26.7,24.2,30.01,NNW,334,0.0,0.0,90,0.00,,,0.00,0,Wunderground v.1.15,2013-03-17 10:55:00,
2013-03-17 07:00:00,26.8,24.3,30.00,NNW,334,0.0,1.0,90,0.00,,,0.00,0,Wunderground v.1.15,2013-03-17 11:00:00,
2013-03-17 07:10:00,27.0,24.2,30.00,North,355,0.0,1.0,89,0.00,,,0.00,5,Wunderground v.1.15,2013-03-17 11:10:00,
2013-03-17 07:20:00,27.2,23.8,30.01,NNE,16,1.0,1.0,87,0.00,,,0.00,9,Wunderground v.1.15,2013-03-17 11:20:00,
2013-03-17 07:25:00,27.4,23.8,30.01,North,360,1.0,3.0,86,0.00,,,0.00,11,Wunderground v.1.15,2013-03-17 11:25:00,
2013-03-17 07:35:00,27.8,23.6,30.02,North,11,1.0,1.0,84,0.00,,,0.00,12,Wunderground v.1.15,2013-03-17 11:35:00,
2013-03-17 07:40:00,28.0,23.2,30.03,NNW,329,1.0,2.0,82,0.00,,,0.00,14,Wunderground v.1.15,2013-03-17 11:40:00,
2013-03-17 07:50:00,28.5,23.1,30.04,NNW,327,1.0,1.0,80,0.00,,,0.00,18,Wunderground v.1.15,2013-03-17 11:50:00,
2013-03-17 08:00:00,28.9,22.3,30.05,West,280,2.0,2.0,76,0.00,,,0.00,25,Wunderground v.1.15,2013-03-17 12:00:00,
2013-03-17 08:10:00,29.3,22.4,30.06,NW,311,1.0,1.0,75,0.00,,,0.00,79,Wunderground v.1.15,2013-03-17 12:10:00,
2013-03-17 08:15:00,29.6,22.3,30.06,WNW,302,2.0,2.0,74,0.00,,,0.00,137,Wunderground v.1.15,2013-03-17 12:15:00,
2013-03-17 08:20:00,29.8,21.9,30.06,NNE,13,2.0,2.0,72,0.00,,,0.00,77,Wunderground v.1.15,2013-03-17 12:20:00,
2013-03-17 08:30:00,30.0,20.7,30.07,WNW,300,3.0,3.0,68,0.00,,,0.00,230,Wunderground v.1.15,2013-03-17 12:30:00,
2013-03-17 08:35:00,30.1,20.5,30.06,NNW,347,3.0,3.0,67,0.00,,,0.00,193,Wunderground v.1.15,2013-03-17 12:35:00,
2013-03-17 08:40:00,30.3,20.3,30.06,NW,321,3.0,3.0,66,0.00,,,0.00,137,Wunderground v.1.15,2013-03-17 12:40:00,
2013-03-17 08:50:00,30.7,20.0,30.06,NNW,348,4.0,5.0,64,0.00,,,0.00,176,Wunderground v.1.15,2013-03-17 12:50:00,
2013-03-17 09:00:00,31.0,20.6,30.07,NNW,342,4.0,4.0,65,0.00,,,0.00,234,Wunderground v.1.15,2013-03-17 13:00:00,
2013-03-17 09:05:00,31.2,20.8,30.08,WNW,297,3.0,4.0,65,0.00,,,0.00,223,Wunderground v.1.15,2013-03-17 13:05:00,
2013-03-17 09:15:00,31.3,20.2,30.08,NW,321,3.0,4.0,63,0.00,,,0.00,200,Wunderground v.1.15,2013-03-17 13:15:00,
2013-03-17 09:20:00,31.6,21.2,30.09,NNW,340,3.0,4.0,65,0.00,,,0.01,313,Wunderground v.1.15,2013-03-17 13:20:00,
2013-03-17 09:30:00,31.6,19.3,30.09,NW,318,4.0,4.0,60,0.00,,,0.01,285,Wunderground v.1.15,2013-03-17 13:30:00,
2013-03-17 09:40:00,31.7,19.0,30.09,WNW,284,4.0,4.0,59,0.00,,,0.01,253,Wunderground v.1.15,2013-03-17 13:40:00,
2013-03-17 09:50:00,32.3,20.3,30.10,NW,306,3.0,5.0,61,0.00,,,0.01,327,Wunderground v.1.15,2013-03-17 13:50:00,
2013-03-17 09:55:00,32.6,20.2,30.10,NNW,336,3.0,5.0,60,0.00,,,0.01,367,Wunderground v.1.15,2013-03-17 13:55:00,
2013-03-17 10:00:00,32.7,19.9,30.10,NNW,345,4.0,4.0,59,0.00,,,0.01,373,Wunderground v.1.15,2013-03-17 14:00:00,
2013-03-17 10:10:00,32.6,18.6,30.10,West,268,4.0,4.0,56,0.00,,,0.02,290,Wunderground v.1.15,2013-03-17 14:10:00,
2013-03-17 10:15:00,32.5,18.5,30.10,NNE,23,4.0,4.0,56,0.00,,,0.02,327,Wunderground v.1.15,2013-03-17 14:15:00,
2013-03-17 10:20:00,32.6,19.0,30.10,NW,319,4.0,7.0,57,0.00,,,0.02,387,Wunderground v.1.15,2013-03-17 14:20:00,
2013-03-17 10:25:00,32.7,19.1,30.10,WNW,299,4.0,7.0,57,0.00,,,0.02,343,Wunderground v.1.15,2013-03-17 14:25:00,
2013-03-17 10:35:00,33.2,19.2,30.10,WSW,248,4.0,4.0,56,0.00,,,0.02,476,Wunderground v.1.15,2013-03-17 14:35:00,
2013-03-17 10:45:00,33.4,18.9,30.10,NW,304,3.0,4.0,55,0.00,,,0.02,480,Wunderground v.1.15,2013-03-17 14:45:00,
2013-03-17 10:50:00,33.1,18.7,30.11,WNW,285,4.0,6.0,55,0.00,,,0.02,480,Wunderground v.1.15,2013-03-17 14:50:00,
2013-03-17 10:55:00,33.0,19.0,30.11,NW,323,4.0,6.0,56,0.00,,,0.02,429,Wunderground v.1.15,2013-03-17 14:55:00,
2013-03-17 11:00:00,33.2,19.2,30.11,WNW,288,4.0,4.0,56,0.00,,,0.03,478,Wunderground v.1.15,2013-03-17 15:00:00,
2013-03-17 11:10:00,33.5,19.9,30.11,NNW,340,4.0,5.0,57,0.00,,,0.03,415,Wunderground v.1.15,2013-03-17 15:10:00,
2013-03-17 11:15:00,33.6,18.7,30.11,West,264,4.0,5.0,54,0.00,,,0.03,489,Wunderground v.1.15,2013-03-17 15:15:00,
2013-03-17 11:25:00,33.5,19.0,30.11,North,350,4.0,7.0,55,0.00,,,0.03,445,Wunderground v.1.15,2013-03-17 15:25:00,
2013-03-17 11:30:00,33.7,18.4,30.11,NW,323,4.0,6.0,53,0.00,,,0.03,490,Wunderground v.1.15,2013-03-17 15:30:00,
2013-03-17 11:35:00,33.7,19.2,30.11,NNE,12,4.0,6.0,55,0.00,,,0.03,475,Wunderground v.1.15,2013-03-17 15:35:00,
2013-03-17 11:45:00,33.9,19.0,30.11,WNW,283,4.0,5.0,54,0.00,,,0.03,492,Wunderground v.1.15,2013-03-17 15:45:00,
2013-03-17 11:55:00,34.0,19.5,30.10,NW,326,4.0,8.0,55,0.00,,,0.03,469,Wunderground v.1.15,2013-03-17 15:55:00,
2013-03-17 12:05:00,34.0,18.6,30.10,NW,320,5.0,7.0,53,0.00,,,0.03,466,Wunderground v.1.15,2013-03-17 16:05:00,
2013-03-17 12:15:00,34.3,19.8,30.10,NW,306,4.0,5.0,55,0.00,,,0.03,519,Wunderground v.1.15,2013-03-17 16:15:00,
2013-03-17 12:25:00,34.6,19.2,30.10,ENE,57,5.0,5.0,53,0.00,,,0.03,534,Wunderground v.1.15,2013-03-17 16:25:00,
2013-03-17 12:30:00,34.8,19.4,30.10,NNW,342,5.0,11.0,53,0.00,,,0.03,515,Wunderground v.1.15,2013-03-17 16:30:00,
2013-03-17 12:40:00,35.4,20.8,30.10,WNW,291,4.0,4.0,55,0.00,,,0.03,466,Wunderground v.1.15,2013-03-17 16:40:00,
2013-03-17 12:45:00,35.7,19.3,30.09,NW,324,3.0,6.0,51,0.00,,,0.03,522,Wunderground v.1.15,2013-03-17 16:45:00,
2013-03-17 12:50:00,35.6,19.7,30.10,NNE,22,4.0,4.0,52,0.00,,,0.03,499,Wunderground v.1.15,2013-03-17 16:50:00,
2013-03-17 13:00:00,36.2,19.3,30.10,WNW,302,4.0,7.0,50,0.00,,,0.04,464,Wunderground v.1.15,2013-03-17 17:00:00,
2013-03-17 13:05:00,36.0,18.7,30.10,West,275,4.0,7.0,49,0.00,,,0.04,471,Wunderground v.1.15,2013-03-17 17:05:00,
2013-03-17 13:15:00,35.3,17.5,30.10,NW,319,5.0,5.0,48,0.00,,,0.04,492,Wunderground v.1.15,2013-03-17 17:15:00,
2013-03-17 13:20:00,35.1,17.8,30.10,NE,43,5.0,5.0,49,0.00,,,0.04,527,Wunderground v.1.15,2013-03-17 17:20:00,
2013-03-17 13:30:00,35.7,18.9,30.10,West,261,5.0,7.0,50,0.00,,,0.04,531,Wunderground v.1.15,2013-03-17 17:30:00,
2013-03-17 13:35:00,35.9,18.1,30.10,NW,312,6.0,7.0,48,0.00,,,0.04,506,Wunderground v.1.15,2013-03-17 17:35:00,
2013-03-17 13:45:00,35.9,19.0,30.10,West,281,5.0,5.0,50,0.00,,,0.04,504,Wunderground v.1.15,2013-03-17 17:45:00,
2013-03-17 13:50:00,35.7,17.9,30.10,WNW,300,5.0,5.0,48,0.00,,,0.04,394,Wunderground v.1.15,2013-03-17 17:50:00,
2013-03-17 13:55:00,35.8,19.0,30.10,NW,326,4.0,5.0,50,0.00,,,0.04,429,Wunderground v.1.15,2013-03-17 17:55:00,
2013-03-17 14:05:00,35.8,18.5,30.10,NNW,336,4.0,6.0,49,0.00,,,0.04,323,Wunderground v.1.15,2013-03-17 18:05:00,
2013-03-17 14:10:00,35.8,19.0,30.10,WNW,292,4.0,8.0,50,0.00,,,0.04,327,Wunderground v.1.15,2013-03-17 18:10:00,
2013-03-17 14:15:00,35.6,18.3,30.10,NW,309,4.0,8.0,49,0.00,,,0.04,350,Wunderground v.1.15,2013-03-17 18:15:00,
2013-03-17 14:25:00,35.6,18.3,30.10,WNW,292,5.0,5.0,49,0.00,,,0.04,408,Wunderground v.1.15,2013-03-17 18:25:00,
2013-03-17 14:30:00,35.8,19.4,30.11,NNW,344,5.0,6.0,51,0.00,,,0.04,420,Wunderground v.1.15,2013-03-17 18:30:00,
2013-03-17 14:40:00,36.4,18.6,30.11,WNW,298,4.0,4.0,48,0.00,,,0.04,353,Wunderground v.1.15,2013-03-17 18:40:00,
2013-03-17 14:45:00,36.2,16.9,30.11,WSW,242,5.0,5.0,45,0.00,,,0.04,318,Wunderground v.1.15,2013-03-17 18:45:00,
2013-03-17 14:55:00,36.0,16.7,30.11,NW,311,4.0,5.0,45,0.00,,,0.04,287,Wunderground v.1.15,2013-03-17 18:55:00,
2013-03-17 15:05:00,36.2,16.9,30.11,NW,313,4.0,8.0,45,0.00,,,0.04,264,Wunderground v.1.15,2013-03-17 19:05:00,
2013-03-17 15:10:00,36.3,18.0,30.11,NW,316,4.0,4.0,47,0.00,,,0.04,279,Wunderground v.1.15,2013-03-17 19:10:00,
2013-03-17 15:15:00,36.4,17.1,30.10,NW,311,3.0,4.0,45,0.00,,,0.04,294,Wunderground v.1.15,2013-03-17 19:15:00,
2013-03-17 15:25:00,36.6,17.2,30.11,WNW,297,3.0,5.0,45,0.00,,,0.04,285,Wunderground v.1.15,2013-03-17 19:25:00,
2013-03-17 15:30:00,36.5,17.7,30.11,NNE,29,4.0,4.0,46,0.00,,,0.04,269,Wunderground v.1.15,2013-03-17 19:30:00,
2013-03-17 15:35:00,36.6,17.2,30.11,West,278,5.0,5.0,45,0.00,,,0.04,297,Wunderground v.1.15,2013-03-17 19:35:00,
2013-03-17 15:40:00,36.5,17.1,30.11,West,277,5.0,7.0,45,0.00,,,0.04,295,Wunderground v.1.15,2013-03-17 19:40:00,
2013-03-17 15:45:00,36.3,16.4,30.11,West,271,5.0,7.0,44,0.00,,,0.04,374,Wunderground v.1.15,2013-03-17 19:45:00,
2013-03-17 15:55:00,36.6,15.1,30.11,North,360,4.0,5.0,41,0.00,,,0.04,378,Wunderground v.1.15,2013-03-17 19:55:00,
2013-03-17 16:05:00,37.4,16.9,30.12,WNW,296,3.0,4.0,43,0.00,,,0.04,279,Wunderground v.1.15,2013-03-17 20:05:00,
2013-03-17 16:10:00,37.5,15.9,30.12,NW,310,3.0,3.0,41,0.00,,,0.04,255,Wunderground v.1.15,2013-03-17 20:10:00,
2013-03-17 16:20:00,37.1,17.7,30.12,North,355,3.0,3.0,45,0.00,,,0.04,220,Wunderground v.1.15,2013-03-17 20:20:00,
2013-03-17 16:30:00,37.1,14.4,30.12,West,280,3.0,3.0,39,0.00,,,0.04,199,Wunderground v.1.15,2013-03-17 20:30:00,
2013-03-17 16:35:00,37.0,13.7,30.13,North,355,3.0,3.0,38,0.00,,,0.04,213,Wunderground v.1.15,2013-03-17 20:35:00,
2013-03-17 16:45:00,37.2,13.9,30.13,West,269,3.0,3.0,38,0.00,,,0.04,186,Wunderground v.1.15,2013-03-17 20:45:00,
2013-03-17 16:50:00,37.1,13.8,30.13,NW,318,3.0,6.0,38,0.00,,,0.04,176,Wunderground v.1.15,2013-03-17 20:50:00,
2013-03-17 16:55:00,37.0,13.1,30.13,WNW,302,3.0,6.0,37,0.00,,,0.04,160,Wunderground v.1.15,2013-03-17 20:55:00,
2013-03-17 17:05:00,36.8,12.3,30.13,West,259,3.0,5.0,36,0.00,,,0.04,146,Wunderground v.1.15,2013-03-17 21:05:00,
2013-03-17 17:10:00,36.7,12.8,30.13,NNW,331,3.0,3.0,37,0.00,,,0.04,134,Wunderground v.1.15,2013-03-17 21:10:00,
2013-03-17 17:20:00,36.7,13.4,30.13,WNW,284,2.0,2.0,38,0.00,,,0.04,123,Wunderground v.1.15,2013-03-17 21:20:00,
2013-03-17 17:25:00,36.7,13.4,30.14,West,278,2.0,4.0,38,0.00,,,0.04,111,Wunderground v.1.15,2013-03-17 21:25:00,
2013-03-17 17:30:00,36.6,13.9,30.14,WNW,290,2.0,3.0,39,0.00,,,0.04,105,Wunderground v.1.15,2013-03-17 21:30:00,
2013-03-17 17:39:00,36.6,13.4,30.14,West,267,3.0,3.0,38,0.00,,,0.04,88,Wunderground v.1.15,2013-03-17 21:39:00,
2013-03-17 17:45:00,36.5,13.3,30.14,WNW,282,3.0,3.0,38,0.00,,,0.04,81,Wunderground v.1.15,2013-03-17 21:45:00,
2013-03-17 17:50:00,36.4,13.2,30.15,WNW,300,3.0,3.0,38,0.00,,,0.04,77,Wunderground v.1.15,2013-03-17 21:50:00,
2013-03-17 18:00:00,36.3,13.7,30.15,West,265,2.0,4.0,39,0.00,,,0.04,62,Wunderground v.1.15,2013-03-17 22:00:00,
2013-03-17 18:05:00,36.2,13.0,30.15,NW,315,2.0,4.0,38,0.00,,,0.04,56,Wunderground v.1.15,2013-03-17 22:05:00,
2013-03-17 18:10:00,36.2,13.6,30.16,WNW,300,2.0,2.0,39,0.00,,,0.04,47,Wunderground v.1.15,2013-03-17 22:10:00,
2013-03-17 18:20:00,36.1,13.5,30.16,North,5,1.0,1.0,39,0.00,,,0.04,35,Wunderground v.1.15,2013-03-17 22:20:00,
2013-03-17 18:30:00,36.0,13.4,30.17,WNW,302,0.0,1.0,39,0.00,,,0.04,25,Wunderground v.1.15,2013-03-17 22:30:00,
2013-03-17 18:35:00,35.9,13.3,30.17,NW,325,0.0,2.0,39,0.00,,,0.04,16,Wunderground v.1.15,2013-03-17 22:35:00,
2013-03-17 18:40:00,35.8,14.4,30.17,WNW,292,1.0,1.0,41,0.00,,,0.04,12,Wunderground v.1.15,2013-03-17 22:40:00,
2013-03-17 18:50:00,35.5,13.0,30.18,NE,38,1.0,1.0,39,0.00,,,0.04,5,Wunderground v.1.15,2013-03-17 22:50:00,
2013-03-17 19:00:00,35.3,12.8,30.18,WNW,289,1.0,1.0,39,0.00,,,0.04,0,Wunderground v.1.15,2013-03-17 23:00:00,
2013-03-17 19:10:00,35.1,13.2,30.19,West,270,1.0,1.0,40,0.00,,,0.04,0,Wunderground v.1.15,2013-03-17 23:10:00,
2013-03-17 19:20:00,34.8,12.3,30.20,WNW,288,1.0,3.0,39,0.00,,,0.04,0,Wunderground v.1.15,2013-03-17 23:20:00,
2013-03-17 19:25:00,34.8,12.9,30.20,North,9,1.0,4.0,40,0.00,,,0.04,0,Wunderground v.1.15,2013-03-17 23:25:00,
2013-03-17 19:35:00,34.7,12.8,30.20,NNW,342,2.0,4.0,40,0.00,,,0.04,0,Wunderground v.1.15,2013-03-17 23:35:00,
2013-03-17 19:40:00,34.7,12.8,30.20,WNW,289,2.0,3.0,40,0.00,,,0.04,0,Wunderground v.1.15,2013-03-17 23:40:00,
2013-03-17 19:49:00,34.7,12.8,30.21,NW,319,1.0,1.0,40,0.00,,,0.04,0,Wunderground v.1.15,2013-03-17 23:49:00,
2013-03-17 19:55:00,34.6,13.8,30.22,NNW,343,1.0,1.0,42,0.00,,,0.04,0,Wunderground v.1.15,2013-03-17 23:55:00,
2013-03-17 20:00:00,34.6,13.3,30.22,NNE,28,1.0,1.0,41,0.00,,,0.04,0,Wunderground v.1.15,2013-03-18 00:00:00,
2013-03-17 20:05:00,34.5,13.2,30.22,NNE,28,0.0,1.0,41,0.00,,,0.04,0,Wunderground v.1.15,2013-03-18 00:05:00,
2013-03-17 20:15:00,34.4,14.2,30.22,West,270,2.0,3.0,43,0.00,,,0.04,0,Wunderground v.1.15,2013-03-18 00:15:00,
2013-03-17 20:20:00,34.4,13.6,30.23,North,5,2.0,2.0,42,0.00,,,0.04,0,Wunderground v.1.15,2013-03-18 00:20:00,
2013-03-17 20:30:00,34.3,13.0,30.23,North,360,2.0,3.0,41,0.00,,,0.04,0,Wunderground v.1.15,2013-03-18 00:30:00,
2013-03-17 20:35:00,34.3,13.6,30.23,NNW,342,2.0,3.0,42,0.00,,,0.04,0,Wunderground v.1.15,2013-03-18 00:35:00,
2013-03-17 20:40:00,34.3,13.0,30.23,NNW,344,2.0,2.0,41,0.00,,,0.04,0,Wunderground v.1.15,2013-03-18 00:40:00,
2013-03-17 20:45:00,34.3,13.6,30.24,WNW,294,1.0,2.0,42,0.00,,,0.04,0,Wunderground v.1.15,2013-03-18 00:45:00,
2013-03-17 20:55:00,34.1,13.9,30.24,NNE,30,1.0,1.0,43,0.00,,,0.04,0,Wunderground v.1.15,2013-03-18 00:55:00,
2013-03-17 21:04:00,33.9,13.7,30.24,NW,305,1.0,1.0,43,0.00,,,0.04,0,Wunderground v.1.15,2013-03-18 01:04:00,
2013-03-17 21:10:00,33.9,13.7,30.25,NNW,328,1.0,2.0,43,0.00,,,0.04,0,Wunderground v.1.15,2013-03-18 01:10:00,
2013-03-17 21:15:00,33.9,13.7,30.25,North,5,1.0,2.0,43,0.00,,,0.04,0,Wunderground v.1.15,2013-03-18 01:15:00,
2013-03-17 21:20:00,33.8,13.1,30.25,North,355,1.0,2.0,42,0.00,,,0.04,0,Wunderground v.1.15,2013-03-18 01:20:00,
2013-03-17 21:30:00,33.7,13.0,30.26,NNW,346,1.0,1.0,42,0.00,,,0.04,0,Wunderground v.1.15,2013-03-18 01:30:00,
2013-03-17 21:40:00,33.5,12.8,30.26,NW,319,0.0,2.0,42,0.00,,,0.04,0,Wunderground v.1.15,2013-03-18 01:40:00,
2013-03-17 21:50:00,33.3,13.2,30.27,NNW,346,1.0,1.0,43,0.00,,,0.04,0,Wunderground v.1.15,2013-03-18 01:50:00,
2013-03-17 22:00:00,33.2,12.6,30.27,NNE,23,1.0,3.0,42,0.00,,,0.04,0,Wunderground v.1.15,2013-03-18 02:00:00,
2013-03-17 22:10:00,33.1,12.5,30.27,NNW,327,2.0,2.0,42,0.00,,,0.04,0,Wunderground v.1.15,2013-03-18 02:10:00,
2013-03-17 22:19:00,33.0,11.8,30.28,NNW,344,2.0,2.0,41,0.00,,,0.04,0,Wunderground v.1.15,2013-03-18 02:19:00,
2013-03-17 22:25:00,32.9,11.7,30.28,NW,323,2.0,2.0,41,0.00,,,0.04,0,Wunderground v.1.15,2013-03-18 02:25:00,
2013-03-17 22:30:00,32.9,11.7,30.28,WNW,292,1.0,2.0,41,0.00,,,0.04,0,Wunderground v.1.15,2013-03-18 02:30:00,
2013-03-17 22:40:00,32.7,12.6,30.29,NNE,32,1.0,1.0,43,0.00,,,0.04,0,Wunderground v.1.15,2013-03-18 02:40:00,
2013-03-17 22:50:00,32.5,13.0,30.29,NNE,17,1.0,1.0,44,0.00,,,0.04,0,Wunderground v.1.15,2013-03-18 02:50:00,
2013-03-17 23:00:00,32.4,12.9,30.29,NNE,17,2.0,2.0,44,0.00,,,0.04,0,Wunderground v.1.15,2013-03-18 03:00:00,
2013-03-17 23:05:00,32.4,12.9,30.30,North,5,2.0,6.0,44,0.00,,,0.04,0,Wunderground v.1.15,2013-03-18 03:05:00,
2013-03-17 23:15:00,32.3,12.8,30.30,North,10,2.0,4.0,44,0.00,,,0.04,0,Wunderground v.1.15,2013-03-18 03:15:00,
2013-03-17 23:20:00,32.3,13.3,30.29,NNE,28,2.0,2.0,45,0.00,,,0.04,0,Wunderground v.1.15,2013-03-18 03:20:00,
2013-03-17 23:25:00,32.1,13.1,30.29,NNE,18,2.0,3.0,45,0.00,,,0.04,0,Wunderground v.1.15,2013-03-18 03:25:00,
2013-03-17 23:35:00,31.9,13.4,30.29,North,5,2.0,4.0,46,0.00,,,0.04,0,Wunderground v.1.15,2013-03-18 03:35:00,
2013-03-17 23:45:00,31.9,13.4,30.29,NE,51,3.0,3.0,46,0.00,,,0.04,0,Wunderground v.1.15,2013-03-18 03:45:00,
2013-03-17 23:55:00,31.8,13.3,30.29,ENE,78,2.0,3.0,46,0.00,,,0.04,0,Wunderground v.1.15,2013-03-18 03:55:00,